Montpelier, VT

6:39 AM EST on December 13, 2019 (GMT -0500)
Knapp State

Weather History for KMPV - July, 2019

Change the Weather History Date:

Monday, July 22, 2019

  Actual Average Record
Temperature  
Mean Temperature 63 °F 67 °F  
Max Temperature 66 °F 79 °F 95 °F (1955)
Min Temperature 60 °F 56 °F 42 °F (1965)
Degree Days  
Heating Degree Days 2 1  
Month to date heating degree days 8 28  
Since 1 June heating degree days 152 149  
Since 1 July heating degree days 8 28  
Cooling Degree Days 0 3  
Month to date cooling degree days 96 70  
Year to date cooling degree days 116 133  
Since 1 June cooling degree days 115 123  
Growing Degree Days 12 (Base 50)    
Moisture  
Dew Point 61 °F    
Average Humidity 92    
Maximum Humidity 100    
Minimum Humidity 84    
Precipitation  
Precipitation 0.20 in 0.15 in 1.13 in (2006)
Month to date precipitation 2.74 2.77  
Year to date precipitation 27.67 19.48  
Sea Level Pressure  
Sea Level Pressure 29.95 in    
Wind  
Wind Speed 2 mph (NNE)    
Max Wind Speed 7 mph    
Max Gust Speed 11 mph    
Visibility 8 miles    
Events Fog , Rain    
T = Trace of Precipitation, MM = Missing Value Source: NWS Daily Summary

Daily Weather History Graph

Daily Weather History Graph

Search for Another Location

Airport or City:

Astronomy

Jul. 22, 2019 Rise Set
Actual Time 5:27 AM EDT 8:25 PM EDT
Civil Twilight 4:52 AM EDT 9:00 PM EDT
Nautical Twilight 4:08 AM EDT 9:43 PM EDT
Astronomical Twilight 3:16 AM EDT 10:35 PM EDT
Moon 11:33 PM EDT (7/22) 10:51 AM EDT (7/22)
Length of Visible Light 16h 07m
Length of Day
14h 58m
Waning Gibbous, 72% of the Moon is Illuminated
Jul 22
Waning Gibbous
Jul 24
Last Quarter
Jul 31
New
Aug 7
First Quarter
Aug 15
Full

Hourly Weather History & Observations

Time (EDT) Temp. Dew Point Humidity Pressure Visibility Wind Dir Wind Speed Gust Speed Precip Events Conditions
12:51 AM 64.9 °F 64.0 °F 97% 29.90 in 10.0 mi West 3.5 mph - N/A   Overcast
1:51 AM 64.9 °F 63.0 °F 93% 29.91 in 10.0 mi Calm Calm - N/A   Scattered Clouds
2:51 AM 63.0 °F 63.0 °F 100% 29.92 in 10.0 mi West 3.5 mph - N/A   Mostly Cloudy
3:51 AM 63.0 °F 61.0 °F 93% 29.93 in 10.0 mi Calm Calm - N/A   Mostly Cloudy
4:13 AM 62.1 °F 62.1 °F 100% 29.95 in 1.0 mi ENE 4.6 mph - N/A   Mostly Cloudy
4:20 AM 62.1 °F 62.1 °F 100% 29.95 in 0.2 mi ENE 3.5 mph - N/A Fog Fog
4:51 AM 62.1 °F 62.1 °F 100% 29.95 in 0.2 mi West 3.5 mph - N/A Fog Fog
5:09 AM 61.0 °F 61.0 °F 100% 29.96 in 1.2 mi Calm Calm - N/A   Mostly Cloudy
5:12 AM 61.0 °F 61.0 °F 100% 29.96 in 2.0 mi Calm Calm - N/A   Mostly Cloudy
5:17 AM 61.0 °F 61.0 °F 100% 29.96 in 3.0 mi Calm Calm - N/A   Scattered Clouds
5:45 AM 60.8 °F 60.8 °F 100% 29.97 in 1.2 mi Calm Calm - N/A   Mostly Cloudy
5:47 AM 60.8 °F 60.8 °F 100% 29.97 in 0.8 mi Calm Calm - N/A   Mostly Cloudy
5:51 AM 61.0 °F 61.0 °F 100% 29.96 in 0.5 mi Calm Calm - N/A Fog Fog
5:59 AM 61.0 °F 61.0 °F 100% 29.97 in 0.2 mi Calm Calm - N/A Fog Fog
6:32 AM 61.0 °F 61.0 °F 100% 29.96 in 1.5 mi Calm Calm - N/A   Mostly Cloudy
6:34 AM 61.0 °F 61.0 °F 100% 29.96 in 3.0 mi Calm Calm - N/A   Mostly Cloudy
6:42 AM 61.0 °F 61.0 °F 100% 29.96 in 10.0 mi Calm Calm - N/A   Scattered Clouds
6:51 AM 61.0 °F 61.0 °F 100% 29.95 in 8.0 mi Calm Calm - N/A   Mostly Cloudy
7:14 AM 61.0 °F 61.0 °F 100% 29.97 in 10.0 mi NNE 3.5 mph - N/A   Mostly Cloudy
7:31 AM 61.0 °F 61.0 °F 100% 29.97 in 10.0 mi NNE 5.8 mph - N/A   Scattered Clouds
7:51 AM 62.1 °F 60.1 °F 93% 29.97 in 10.0 mi Calm Calm - N/A   Clear
8:51 AM 63.0 °F 57.0 °F 81% 29.97 in 10.0 mi Variable 3.5 mph - N/A   Clear
9:51 AM 62.1 °F 57.0 °F 84% 30.01 in 10.0 mi WNW 4.6 mph - 0.00 in Rain Light Rain
10:51 AM 62.1 °F 57.0 °F 84% 30.02 in 10.0 mi NW 3.5 mph - 0.01 in Rain Light Rain
11:51 AM 61.0 °F 57.0 °F 87% 30.00 in 10.0 mi North 3.5 mph - 0.02 in Rain Light Rain
12:51 PM 61.0 °F 57.9 °F 90% 30.00 in 10.0 mi SW 3.5 mph - 0.01 in Rain Light Rain
1:51 PM 61.0 °F 57.9 °F 90% 29.99 in 10.0 mi WNW 4.6 mph - 0.03 in Rain Light Rain
2:51 PM 62.1 °F 60.1 °F 93% 29.97 in 10.0 mi Calm Calm - 0.02 in Rain Light Rain
3:08 PM 62.1 °F 61.0 °F 96% 29.95 in 10.0 mi ENE 3.5 mph - 0.01 in Rain Light Rain
3:16 PM 62.1 °F 61.0 °F 96% 29.95 in 10.0 mi ENE 3.5 mph - 0.01 in Rain Light Rain
3:51 PM 62.1 °F 61.0 °F 96% 29.94 in 10.0 mi NNE 3.5 mph - 0.02 in Rain Light Rain
4:36 PM 61.0 °F 60.1 °F 97% 29.94 in 7.0 mi NNW 3.5 mph - 0.05 in Rain Light Rain
4:51 PM 61.0 °F 60.1 °F 97% 29.94 in 10.0 mi Calm Calm - 0.06 in Rain Light Rain
5:06 PM 62.1 °F 60.1 °F 93% 29.94 in 10.0 mi ESE 4.6 mph - 0.01 in Rain Light Rain
5:15 PM 62.1 °F 60.1 °F 93% 29.93 in 10.0 mi SSE 4.6 mph - 0.01 in Rain Light Rain
5:48 PM 62.6 °F 60.8 °F 94% 29.92 in 10.0 mi SE 3.5 mph - 0.01 in   Overcast
5:51 PM 63.0 °F 61.0 °F 93% 29.92 in 10.0 mi South 4.6 mph - 0.01 in   Overcast
6:15 PM 62.1 °F 61.0 °F 96% 29.93 in 10.0 mi Calm Calm - N/A   Overcast
6:36 PM 62.1 °F 61.0 °F 96% 29.93 in 10.0 mi ENE 3.5 mph - N/A   Overcast
6:51 PM 63.0 °F 61.0 °F 93% 29.92 in 10.0 mi Calm Calm - N/A   Overcast
7:39 PM 62.1 °F 61.0 °F 96% 29.92 in 10.0 mi Calm Calm - N/A   Overcast
7:49 PM 62.6 °F 60.8 °F 94% 29.92 in 10.0 mi NNE 4.6 mph - N/A   Overcast
7:51 PM 62.1 °F 61.0 °F 96% 29.92 in 10.0 mi NE 4.6 mph - N/A   Overcast
8:02 PM 62.1 °F 61.0 °F 96% 29.91 in 10.0 mi ENE 3.5 mph - N/A   Mostly Cloudy
8:29 PM 62.1 °F 62.1 °F 100% 29.91 in 10.0 mi Calm Calm - 0.00 in Rain Light Rain
8:51 PM 62.1 °F 62.1 °F 100% 29.92 in 10.0 mi Calm Calm - 0.00 in   Overcast
8:59 PM 62.1 °F 62.1 °F 100% 29.92 in 10.0 mi Calm Calm - 0.00 in Rain Light Rain
9:07 PM 62.1 °F 62.1 °F 100% 29.93 in 10.0 mi Calm Calm - 0.00 in   Overcast
9:23 PM 62.1 °F 62.1 °F 100% 29.92 in 10.0 mi Calm Calm - 0.01 in   Mostly Cloudy
9:37 PM 62.1 °F 61.0 °F 96% 29.93 in 10.0 mi Calm Calm - 0.01 in   Mostly Cloudy
9:47 PM 62.6 °F 60.8 °F 94% 29.94 in 10.0 mi Calm Calm - 0.01 in   Mostly Cloudy
9:51 PM 62.1 °F 61.0 °F 96% 29.94 in 10.0 mi Calm Calm - 0.01 in   Mostly Cloudy
10:01 PM 62.1 °F 61.0 °F 96% 29.93 in 10.0 mi Calm Calm - N/A   Overcast
10:04 PM 62.1 °F 61.0 °F 96% 29.93 in 10.0 mi Calm Calm - N/A   Overcast
10:51 PM 61.0 °F 61.0 °F 100% 29.93 in 10.0 mi Calm Calm - N/A   Overcast
11:51 PM 61.0 °F 61.0 °F 100% 29.92 in 7.0 mi Calm Calm - 0.00 in Rain Light Rain